Regional Weather Roundup
Issued by NWS

Home | Current Version | Previous Version | Graphics & Text | Print | Product List | Glossary On
Versions: 1 2 3 4 5 6 7 8 9 10 11 12 13 14 15 16 17 18 19 20 21 22 23 24 25 26 27 28 29 30 31 32 33 34 35 36 37 38 39 40 41 42 43 44 45 46 47 48 49 50
000
ASUS43 KTOP 271359
RWRKS

WEATHER ROUNDUP FOR KANSAS
NATIONAL WEATHER SERVICE GOODLAND KS
900 AM CDT MON APR 27 2015

NOTE:  "FAIR" INDICATES FEW OR NO CLOUDS BELOW 12,000 FEET WITH NO
SIGNIFICANT WEATHER AND/OR OBSTRUCTIONS TO VISIBILITY.

KSZ001>006-013>018-027>032-041>047-271500-
NORTHWEST KANSAS

CITY           SKY/WX    TMP DP  RH WIND       PRES   REMARKS
GOODLAND       CLOUDY    42  40  92 NE8       30.18R
HAYS           PTSUNNY   46  34  61 NE14      30.13R
HILL CITY      CLOUDY    47  35  63 NE13      30.16R
RUSSELL        CLOUDY    46  37  71 NE12      30.12R
$$

KSZ061>065-074>080-084>089-271500-
SOUTHWEST KANSAS

CITY           SKY/WX    TMP DP  RH WIND       PRES   REMARKS
DODGE CITY     CLOUDY    45  39  79 NE21      30.03R
ELKHART          N/A     41  34  76 N21         N/A
GARDEN CITY    CLOUDY    44  39  82 NE21G26   30.05R
GREAT BEND     PTSUNNY   48  37  66 NE15G21   30.09R
LIBERAL        CLOUDY    45  39  81 NE22      30.00S
$$

KSZ066>073-081>083-090>101-271500-
SOUTHEAST KANSAS

CITY           SKY/WX    TMP DP  RH WIND       PRES   REMARKS
CHANUTE        PTSUNNY   51  39  63 NE10G18   30.08R
COFFEYVILLE    CLOUDY    53  40  61 NE18      30.03R
HUTCHINSON     PTSUNNY   50  38  63 NE13G23   30.06R
MEDICINE LODGE   N/A     47  43  86 NE15G24   29.97R
NEWTON         CLOUDY    48  36  61 NE14G22   30.07S
PARSONS          N/A     54  41  61 NE10G17   30.07
WICHITA INTL   CLOUDY    52  37  56 NE16      30.02S
WICHITA JABRA  CLOUDY    52  38  58 E16G24    30.03R
WINFIELD       CLOUDY    51  41  68 NE18G25   30.00R
$$

KSZ007>012-019>026-033>040-048>060-102>105-271500-
NORTHEAST KANSAS

CITY           SKY/WX    TMP DP  RH WIND       PRES   REMARKS
CONCORDIA      CLOUDY    46  36  68 NE8       30.15R
EMPORIA        CLOUDY    48  38  68 E14       30.11R
LAWRENCE       PTSUNNY   50  39  66 NE7       30.16R
MANHATTAN      CLOUDY    48  38  68 E7        30.14S
OLATHE IND     PTSUNNY   52  38  58 E7        30.16R
OLATHE EXE     PTSUNNY   52  38  58 NE8       30.14R
SALINA         CLOUDY    48  36  63 NE10      30.13R
TOPEKA BILLARD CLOUDY    49  39  68 NE8       30.16R
TOPEKA FORBES  CLOUDY    50  39  66 NE5       30.14R
$$



USA.gov is the U.S. government's official web portal to all federal, state and local government web resources and services.